This is the latest recevied weather packets stored in our database for station/object W8RD. If no packets are shown the sender has not sent any weather packets the latest 10 day(s).
| Time | Temp. | Humidity | Pressure | Rain* | Wind** | Luminosity | Snow |
|---|---|---|---|---|---|---|---|
| 1777409850 | 29.44° C | 49% | 1018.4 hPa | 0 mm | - | 467 W/m² | - |
| 1777409248 | 30° C | 50% | 1018.8 hPa | 0 mm | - | 507 W/m² | - |
| 1777408647 | 30.56° C | 48% | 1019.3 hPa | 0 mm | - | 548 W/m² | - |
| 1777408042 | 30.56° C | 47% | 1019.4 hPa | 0 mm | - | 584 W/m² | - |
| 1777407439 | 30° C | 49% | 1019.6 hPa | 0 mm | - | 660 W/m² | - |
| 1777406836 | 30° C | 51% | 1020 hPa | 0 mm | - | 649 W/m² | - |
| 1777406233 | 29.44° C | 59% | 1020 hPa | 0 mm | - | 705 W/m² | - |
| 1777405628 | 28.89° C | 62% | 1020.1 hPa | 0 mm | - | 717 W/m² | - |
| 1777405027 | 29.44° C | 63% | 1020.3 hPa | 0 mm | - | 335 W/m² | - |
| 1777404423 | 30° C | 59% | 1020.2 hPa | 0 mm | - | 834 W/m² | - |
| 1777403822 | 29.44° C | 60% | 1020.4 hPa | 0 mm | - | 795 W/m² | - |
| 1777403222 | 29.44° C | 60% | 1020.5 hPa | 0 mm | - | 816 W/m² | - |
| 1777402619 | 28.89° C | 63% | 1020.6 hPa | 0 mm | - | 836 W/m² | - |
| 1777402016 | 29.44° C | 61% | 1020.7 hPa | 0 mm | - | 856 W/m² | - |
| 1777401413 | 28.89° C | 62% | 1020.8 hPa | 0 mm | - | 872 W/m² | - |
| 1777400809 | 29.44° C | 60% | 1020.8 hPa | 0 mm | - | 886 W/m² | - |
| 1777400209 | 28.89° C | 59% | 1020.7 hPa | 0 mm | - | 899 W/m² | - |
| 1777399608 | 29.44° C | 59% | 1020.9 hPa | 0 mm | - | 909 W/m² | - |
| 1777399009 | 29.44° C | 59% | 1020.7 hPa | 0 mm | - | 915 W/m² | - |
| 1777398408 | 28.89° C | 59% | 1020.7 hPa | 0 mm | - | 922 W/m² | - |
| 1777397808 | 28.89° C | 57% | 1020.7 hPa | 0 mm | - | 925 W/m² | - |
| 1777397205 | 28.89° C | 59% | 1020.6 hPa | 0 mm | - | 925 W/m² | - |
| 1777396604 | 28.89° C | 57% | 1020.7 hPa | 0 mm | - | 922 W/m² | - |
| 1777396004 | 28.33° C | 58% | 1020.8 hPa | 0 mm | - | 941 W/m² | - |
| 1777395400 | 28.89° C | 56% | 1020.9 hPa | 0 mm | - | 919 W/m² | - |
* Rain latest hour (hover to see other rain measurements)
** Current wind speed in m/s (hover to see current wind gust speed)